[[[{"header":{"parameterUnit":"kt","parameterCategory":2,"dx":1,"dy":1,"la1":30.253999710083008,"la2":30.299108505249023,"lo1":-89.0895004272461,"lo2":-89.04439544677734,"nx":28,"ny":28,"refTime":"2022-10-23T21:00:00:Z","depth":0,"parameterNumber":1,"parameterNumberName":"U-component_of_WINDS"},"data":[-9.5467,-9.5655,-9.5676,-9.59,-9.5958,-9.6114,-9.6177,-9.626,-9.6332,-9.6522,-9.6635,-9.6676,-9.6756,-9.6896,-9.7019,-9.7034,-9.7083,-9.7134,-9.7142,-9.6896,-9.6863,-9.6831,-9.6785,-9.7146,-9.7147,-9.7392,-9.7394,-9.7396,-9.5284,-9.5342,-9.5468,-9.5603,-9.5711,-9.5675,-9.578,-9.5871,-9.6013,-9.6104,-9.6216,-9.6385,-9.6521,-9.6585,-9.6719,-9.6807,-9.6796,-9.6841,-9.6832,-9.6844,-9.6583,-9.6535,-9.6848,-9.6848,-9.6848,-9.6848,-9.6848,-9.6848,-9.4955,-9.5068,-9.5161,-9.5297,-9.5372,-9.5463,-9.5573,-9.562,-9.5743,-9.5886,-9.5888,-9.6048,-9.6143,-9.6315,-9.6378,-9.6503,-9.6456,-9.6511,-9.6524,-9.6536,-9.6546,-9.6181,-9.6528,-9.6527,-9.6527,-9.6526,-9.6525,0,-9.4719,-9.4729,-9.485,-9.4979,-9.5079,-9.5181,-9.5277,-9.5347,-9.5374,-9.5475,-9.5622,-9.571,-9.5885,-9.6025,-9.6156,-9.621,-9.6178,-9.618,-9.6217,-9.6214,-9.6195,-9.6202,-9.577,-9.6168,-9.6165,-9.6163,-9.6161,-9.616,-9.4384,-9.4514,-9.4622,-9.4705,-9.4762,-9.4897,-9.498,-9.4994,-9.5083,-9.5204,-9.5302,-9.5444,-9.5557,-9.579,-9.5842,-9.5973,-9.5957,-9.6106,-9.5976,-9.597,-9.5953,-9.5943,-9.5954,-9.6129,-9.6133,-9.6136,-9.6139,0,-9.4192,-9.4225,-9.4433,-9.4527,-9.4555,-9.4691,-9.4771,-9.4884,-9.4917,-9.5078,-9.5116,-9.5167,-9.5311,-9.534,-9.5511,-9.5521,-9.5742,-9.5728,-9.5709,-9.5705,-9.5837,-9.5823,-9.6272,-9.6329,-9.5962,-9.5966,-9.5969,0,-9.3916,-9.4087,-9.4125,-9.4244,-9.4434,-9.4442,-9.463,-9.4676,-9.4757,-9.4883,-9.4854,-9.4973,-9.499,-9.5114,-9.5129,-9.5316,-9.535,-9.5366,-9.5367,-9.5366,-9.5363,-9.5407,-9.5387,-9.5371,-9.5368,-9.5366,-9.5364,0,-9.3607,-9.383,-9.4024,-9.4079,-9.4196,-9.4287,-9.434,-9.443,-9.4512,-9.4623,-9.4676,-9.4807,-9.4876,-9.4978,-9.4994,-9.4904,-9.5225,-9.5105,-9.5241,-9.524,-9.5305,-9.5299,-9.5696,-9.5361,-9.5361,-9.536,-9.5359,0,-9.3386,-9.3499,-9.3778,-9.3872,-9.393,-9.4059,-9.4185,-9.4303,-9.4399,-9.4416,-9.4504,-9.4485,-9.4654,-9.4532,-9.4763,-9.4641,-9.4712,-9.4744,-9.4754,-9.4765,-9.4625,-9.4838,-9.5219,-9.5256,-9.4783,-9.4779,-9.4774,0,-9.3022,-9.3312,-9.3319,-9.3584,-9.372,-9.3674,-9.3819,-9.3905,-9.3939,-9.406,-9.4098,-9.4236,-9.4151,-9.4197,-9.431,-9.4352,-9.4513,-9.4333,-9.4502,-9.4508,-9.4471,-9.4823,-9.4869,-9.5134,-9.4714,-9.472,-9.4724,0,-9.2741,-9.288,-9.2927,-9.2989,-9.3104,-9.3219,-9.3386,-9.3523,-9.3602,-9.3705,-9.3841,-9.4039,-9.3981,-9.4058,-9.4056,-9.4171,-9.4405,-9.4093,-9.4095,-9.4144,-9.4687,-9.4729,-9.4774,-9.4378,-9.4385,-9.4391,-9.4676,0,-9.2391,-9.254,-9.267,-9.2808,-9.2902,-9.307,-9.3096,-9.3191,-9.3178,-9.3208,-9.3414,-9.3492,-9.3631,-9.3691,-9.368,-9.3935,-9.3895,-9.3832,-9.371,-9.3943,-9.4037,-9.4076,-9.3568,-9.3564,-9.3562,-9.3559,0,0,-9.203,-9.2244,-9.2246,-9.2406,-9.2484,-9.2431,-9.2608,-9.2678,-9.2821,-9.2875,-9.2809,-9.3096,-9.3162,-9.3407,-9.3482,-9.3541,-9.3587,-9.3504,-9.3833,-9.3864,-9.3892,-9.3992,-9.4032,-9.3554,-9.3553,-9.3552,-9.3551,0,-9.1905,-9.1975,-9.2151,-9.2223,-9.233,-9.2353,-9.2396,-9.2492,-9.2519,-9.2721,-9.2672,-9.2798,-9.3029,-9.3102,-9.317,-9.3478,-9.3431,-9.352,-9.3674,-9.3804,-9.3838,-9.3868,-9.3974,-9.4012,-9.3544,-9.3545,-9.3545,0,-9.1629,-9.17,-9.1788,-9.1964,-9.2033,-9.2175,-9.2055,-9.2211,-9.2317,-9.2249,-9.2448,-9.2495,-9.2597,-9.2827,-9.2932,-9.2873,-9.3287,-9.3163,-9.3182,-9.3192,-9.3318,-9.336,-9.3396,-9.2911,-9.2909,-9.2907,0,0,-9.1517,-9.1657,-9.1734,-9.1938,-9.1985,-9.2022,-9.2101,-9.2095,-9.2188,-9.2225,-9.2282,-9.2374,-9.2507,-9.2594,-9.2721,-9.2971,-9.2991,-9.3084,-9.3114,-9.3138,-9.3161,-9.3294,-9.3335,-9.2898,-9.2898,-9.2897,0,0,-9.1463,-9.1561,-9.153,-9.177,-9.1861,-9.1949,-9.2073,-9.2038,-9.2154,-9.2136,-9.2133,-9.2157,-9.2373,-9.242,-9.23,-9.2677,-9.2556,-9.2585,-9.2636,-9.2675,-9.2704,-9.2685,-9.2184,0,0,0,0,0,-9.1346,-9.1548,-9.152,-9.1564,-9.1785,-9.1966,-9.1994,-9.1995,-9.1909,-9.2007,-9.2049,-9.1995,-9.2355,-9.2248,-9.2292,-9.2423,-9.2785,-9.2805,-9.2824,-9.2949,-9.2988,-9.3022,0,0,0,0,0,0,-9.1363,-9.1417,-9.1515,-9.1612,-9.1662,-9.1958,-9.1812,-9.1818,-9.1899,-9.1885,-9.1989,-9.1999,-9.2003,-9.2226,-9.2265,-9.239,-9.2171,-9.2793,-9.281,-9.2825,-9.2962,-9.2995,-9.3023,0,0,0,0,0,-9.1377,-9.142,-9.1774,-9.1609,-9.1652,-9.1703,-9.1805,-9.1809,-9.187,-9.1935,-9.1943,-9.1864,-9.2007,-9.204,-9.2249,-9.2372,-9.2144,-9.2158,-9.2804,-9.2817,-9.2829,-9.2978,0,0,0,0,0,0,-9.1387,-9.1425,-9.1783,-9.1796,-9.1532,-9.1686,-9.171,-9.18,-9.1915,-9.1925,-9.1809,-9.1797,-9.2012,-9.2036,-9.2062,-9.2366,-9.2121,-9.2136,-9.2146,-9.2814,-9.2824,-9.2834,0,0,0,0,0,0,-9.1402,-9.1437,-9.179,-9.1692,-9.1694,-9.1671,-9.1692,-9.1871,-9.1917,-9.1782,-9.1776,-9.1803,-9.1973,-9.2035,-9.2055,-9.2333,-9.2105,-9.2119,-9.2129,-9.2135,-9.2823,-9.2831,0,0,0,0,0,0,-9.1416,-9.1446,-9.1689,-9.1691,-9.1692,-9.184,-9.1828,-9.2055,-9.1834,-9.1778,-9.1814,-9.1805,-9.1974,-9.1993,-9.2051,-9.2321,-9.233,-9.2105,-9.2115,-9.2122,-9.2126,0,0,0,0,0,0,0,-9.1428,-9.1228,-9.1705,-9.1689,-9.169,-9.1918,-9.1922,-9.1925,-9.1832,-9.1824,-9.1816,-9.1809,-9.2023,-9.2039,-9.2055,-9.2311,0,0,-9.2104,-9.2111,0,0,0,0,0,0,0,0,-9.1215,-9.1225,-9.1705,-9.1708,-9.1711,-9.1919,-9.1922,-9.1925,-9.1831,-9.1824,-9.1818,-9.1812,-9.2028,-9.204,-9.2053,0,0,0,0,0,0,0,0,0,0,0,0,0,0,0,-9.1706,-9.1708,0,-9.1919,-9.1922,-9.1924,-9.183,-9.1824,-9.1819,-9.1814,-9.2031,-9.2042,-9.2052,0,0,0,0,0,0,0,0,0,0,0,0,0,0,0,0,0,0,0,0,0,0,0,0,0,0,0,0,0,0,0,0,0,0,0,0,0,0,0,0,0,0,0,0,0,0,0,0,0,0,0,0,0,0,0,0,0,0,0,0,0,0,0,0,0,0,0,0,0]}],[{"header":{"parameterUnit":"kt","parameterCategory":2,"dx":1,"dy":1,"la1":30.253999710083008,"la2":30.299108505249023,"lo1":-89.0895004272461,"lo2":-89.04439544677734,"nx":28,"ny":28,"refTime":"2022-10-23T21:00:00:Z","depth":0,"parameterNumber":2,"parameterNumberName":"V-component_of_WINDS"},"data":[8.5047,8.5116,8.5091,8.516,8.5149,8.519,8.5198,8.5204,8.5203,8.5252,8.5275,8.5258,8.5247,8.5269,8.5293,8.5285,8.5295,8.5339,8.532,8.5151,8.5126,8.5101,8.5081,8.5342,8.5343,8.5497,8.5499,8.55,8.4924,8.4914,8.4944,8.4954,8.4979,8.4922,8.4927,8.4951,8.499,8.4991,8.5012,8.5053,8.5082,8.5056,8.508,8.5112,8.5085,8.5119,8.5114,8.5112,8.4932,8.491,8.514,8.514,8.514,8.514,8.514,8.514,8.4694,8.4738,8.4728,8.476,8.4759,8.4767,8.4803,8.478,8.4808,8.4829,8.4794,8.4839,8.4834,8.485,8.4849,8.4883,8.484,8.4869,8.4875,8.4882,8.4892,8.4667,8.4887,8.4886,8.4885,8.4885,8.4884,0,8.4516,8.4492,8.4517,8.4536,8.4558,8.457,8.4577,8.46,8.4539,8.4565,8.4601,8.4617,8.465,8.468,8.4697,8.4689,8.463,8.4624,8.4643,8.4656,8.4668,8.4658,8.436,8.4616,8.4614,8.4612,8.461,8.461,8.4278,8.4333,8.4311,8.4333,8.4329,8.4367,8.4383,8.4325,8.4345,8.4345,8.4387,8.4417,8.4437,8.45,8.4471,8.4496,8.4466,8.4566,8.4469,8.4482,8.4462,8.4458,8.4461,8.4584,8.4587,8.459,8.4592,0,8.4146,8.4102,8.4179,8.4151,8.4146,8.4207,8.4183,8.4225,8.4197,8.425,8.4259,8.4215,8.4252,8.4206,8.4239,8.4214,8.4312,8.4285,8.4312,8.4302,8.4384,8.4375,8.4664,8.4697,8.4431,8.4433,8.4435,0,8.3923,8.3998,8.3928,8.3974,8.4056,8.3993,8.4075,8.4059,8.4052,8.4093,8.402,8.406,8.3995,8.403,8.3993,8.4065,8.4073,8.4056,8.4044,8.4059,8.4061,8.4065,8.405,8.4021,8.402,8.4018,8.4017,0,8.3716,8.3768,8.3844,8.3848,8.3825,8.3863,8.3856,8.3847,8.3864,8.3879,8.3888,8.3912,8.3923,8.3942,8.3893,8.3829,8.3982,8.3883,8.3964,8.3965,8.3996,8.3994,8.4266,8.4015,8.4015,8.4015,8.4014,0,8.3527,8.3542,8.3661,8.3639,8.3654,8.3706,8.3721,8.3755,8.3752,8.373,8.3742,8.3685,8.3747,8.3652,8.3735,8.3664,8.368,8.367,8.3675,8.3673,8.3566,8.3719,8.3988,8.4011,8.3678,8.3675,8.3673,0,8.33,8.3408,8.3353,8.3468,8.351,8.3421,8.3477,8.3476,8.3452,8.3484,8.3458,8.3496,8.3416,8.342,8.3469,8.3442,8.3535,8.3429,8.3474,8.3476,8.3472,8.372,8.3768,8.3935,8.3637,8.3641,8.3643,0,8.3118,8.3088,8.3112,8.3113,8.31,8.3136,8.3202,8.3224,8.3248,8.3257,8.3307,8.3363,8.3302,8.3312,8.3268,8.332,8.3471,8.3248,8.3247,8.3286,8.3616,8.3661,8.3689,8.343,8.3434,8.3437,8.3615,0,8.2834,8.2883,8.2947,8.2953,8.2973,8.3043,8.299,8.3018,8.2972,8.2944,8.3021,8.3008,8.3031,8.3053,8.3009,8.3145,8.3113,8.3049,8.2948,8.3113,8.3169,8.3193,8.2868,8.2865,8.2862,8.286,0,0,8.2626,8.2692,8.263,8.2689,8.2701,8.2606,8.2684,8.2686,8.2691,8.2701,8.2646,8.272,8.2711,8.2809,8.2857,8.2869,8.2886,8.2831,8.3036,8.3056,8.3074,8.3136,8.3161,8.2855,8.2854,8.2853,8.2852,0,8.2509,8.2503,8.2581,8.2579,8.2574,8.2539,8.2559,8.2536,8.2521,8.2596,8.2514,8.2555,8.2617,8.2616,8.2624,8.2819,8.2754,8.2832,8.2952,8.3011,8.3034,8.3055,8.312,8.3145,8.2846,8.2846,8.2846,0,8.2316,8.2299,8.2331,8.2355,8.2351,8.2397,8.2279,8.2335,8.2368,8.2259,8.2334,8.232,8.2316,8.2417,8.2461,8.2411,8.2635,8.2556,8.2572,8.2574,8.2628,8.2657,8.2682,8.2348,8.2347,8.2345,0,0,8.2222,8.2267,8.2228,8.2326,8.2329,8.2278,8.2298,8.2253,8.2251,8.2251,8.2229,8.223,8.2264,8.2289,8.2318,8.2438,8.243,8.2497,8.2521,8.254,8.2553,8.2612,8.2641,8.2339,8.2339,8.2339,0,0,8.2177,8.2135,8.2088,8.2195,8.2196,8.2164,8.2226,8.2167,8.2188,8.2173,8.21,8.2097,8.2191,8.218,8.2109,8.228,8.2183,8.2198,8.2283,8.2312,8.2335,8.2334,8.1983,0,0,0,0,0,8.2028,8.214,8.2098,8.2108,8.2138,8.2188,8.2191,8.2132,8.2063,8.2114,8.2086,8.2015,8.2126,8.2061,8.2072,8.215,8.2265,8.2278,8.2291,8.2428,8.2458,8.2484,0,0,0,0,0,0,8.2031,8.2044,8.2095,8.2069,8.2075,8.2183,8.2053,8.204,8.2056,8.2042,8.2023,8.2015,8.1966,8.2052,8.2062,8.2138,8.198,8.227,8.2281,8.2291,8.2438,8.2463,8.2485,0,0,0,0,0,8.2034,8.2043,8.2107,8.2066,8.2072,8.202,8.2049,8.2037,8.2048,8.2005,8.1994,8.2002,8.197,8.1975,8.2058,8.2134,8.1972,8.1976,8.2277,8.2286,8.2294,8.2451,0,0,0,0,0,0,8.2035,8.2033,8.2106,8.2106,8.2019,8.2013,8.201,8.2034,8.2009,8.2,8.198,8.1968,8.1974,8.1977,8.1981,8.2136,8.1965,8.197,8.1972,8.2284,8.2291,8.2297,0,0,0,0,0,0,8.2027,8.2033,8.2106,8.2049,8.2041,8.2006,8.2004,8.2066,8.201,8.1984,8.1974,8.1975,8.1967,8.1979,8.1982,8.2082,8.196,8.1964,8.1967,8.1969,8.229,8.2295,0,0,0,0,0,0,8.2029,8.2034,8.2049,8.2043,8.2036,8.2025,8.206,8.2094,8.1961,8.1987,8.1948,8.1941,8.1972,8.1973,8.1983,8.2082,8.2082,8.196,8.1963,8.1965,8.1967,0,0,0,0,0,0,0,8.203,8.201,8.211,8.2038,8.2031,8.21,8.21,8.21,8.196,8.1954,8.1949,8.1944,8.1937,8.1941,8.1946,8.2083,0,0,8.196,8.1962,0,0,0,0,0,0,0,0,8.2006,8.2009,8.211,8.211,8.211,8.21,8.21,8.21,8.1959,8.1955,8.195,8.1946,8.1938,8.1941,8.1945,0,0,0,0,0,0,0,0,0,0,0,0,0,0,0,8.211,8.211,0,8.21,8.21,8.21,8.1958,8.1955,8.1951,8.1948,8.1939,8.1942,8.1945,0,0,0,0,0,0,0,0,0,0,0,0,0,0,0,0,0,0,0,0,0,0,0,0,0,0,0,0,0,0,0,0,0,0,0,0,0,0,0,0,0,0,0,0,0,0,0,0,0,0,0,0,0,0,0,0,0,0,0,0,0,0,0,0,0,0,0,0,0]}]]]